This is the latest recevied weather packets stored in our database for station/object DG4CB-13. If no packets are shown the sender has not sent any weather packets the latest 10 day(s).
| Time | Temp. | Humidity | Pressure | Rain* | Wind** | Luminosity | Snow |
|---|---|---|---|---|---|---|---|
| 1778084400 | 15° C | 69% | 1004.5 hPa | - | - | - | - |
| 1778083800 | 15° C | 69% | 1004.4 hPa | - | - | - | - |
| 1778083199 | 15° C | 69% | 1004.2 hPa | - | - | - | - |
| 1778082599 | 15° C | 69% | 1004.3 hPa | - | - | - | - |
| 1778081999 | 15° C | 70% | 1004.2 hPa | - | - | - | - |
| 1778081399 | 15.56° C | 70% | 1004.2 hPa | - | - | - | - |
| 1778080799 | 16.11° C | 69% | 1004.1 hPa | - | - | - | - |
| 1778080199 | 16.11° C | 66% | 1004 hPa | - | - | - | - |
| 1778079599 | 16.11° C | 69% | 1004 hPa | - | - | - | - |
| 1778078999 | 16.11° C | 70% | 1003.8 hPa | - | - | - | - |
| 1778078399 | 16.67° C | 67% | 1003.8 hPa | - | - | - | - |
| 1778077799 | 16.67° C | 69% | 1003.8 hPa | - | - | - | - |
| 1778077199 | 16.11° C | 71% | 1003.7 hPa | - | - | - | - |
| 1778076599 | 16.67° C | 71% | 1003.8 hPa | - | - | - | - |
| 1778075999 | 16.67° C | 67% | 1003.8 hPa | - | - | - | - |
| 1778075399 | 16.67° C | 67% | 1003.8 hPa | - | - | - | - |
| 1778074799 | 16.67° C | 67% | 1003.8 hPa | - | - | - | - |
| 1778074200 | 16.11° C | 68% | 1003.8 hPa | - | - | - | - |
| 1778073599 | 16.11° C | 68% | 1003.8 hPa | - | - | - | - |
| 1778072999 | 16.67° C | 62% | 1003.7 hPa | - | - | - | - |
| 1778072399 | 17.22° C | 62% | 1003.7 hPa | - | - | - | - |
| 1778071799 | 17.22° C | 60% | 1003.7 hPa | - | - | - | - |
| 1778071199 | 17.78° C | 57% | 1003.5 hPa | - | - | - | - |
| 1778070599 | 17.78° C | 57% | 1003.6 hPa | - | - | - | - |
| 1778069999 | 17.78° C | 61% | 1003.7 hPa | - | - | - | - |
* Rain since midnight (hover to see other rain measurements)
** Current wind speed in m/s (hover to see current wind gust speed)